When you browse on this site, cookies collect data to enhance your experience and personalize the content and advertising you see.
Visit our Privacy Policy to learn more. By continuing to use the site, you agree to this use of cookies and data.
  • In Schweiz
  • Länderverzeichnis
  • Für 7 Tage
  • Wassertemperatur
  • Satellitenkarten
  • Wetterkarte
  • Widgets
  • user-avatar
    Anmelden

    Stündliche Wetter Freising

    Heute, 23 Juli, Dienstag

    Zeit Temperatur Niederschläge Wind Luftdruck Luftfeuchtigkeit
    00:00 +18°C° 0 mm 0 m/S 727 mmHg 81%
    01:00 +18°C° 0 mm 0 m/S 727 mmHg 82%
    02:00 +18°C° 0 mm 0 m/S 727 mmHg 83%
    03:00 +17°C° 0 mm 0 m/S 727 mmHg 83%
    04:00 +17°C° 0 mm 0 m/S 726 mmHg 83%
    05:00 +18°C° 0 mm 0 m/S 727 mmHg 81%
    06:00 +19°C° 0 mm 0 m/S 727 mmHg 78%
    07:00 +22°C° 0 mm 1 m/S 727 mmHg 76%
    08:00 +24°C° 0 mm 1 m/S 727 mmHg 71%
    09:00 +25°C° 0 mm 1 m/S 727 mmHg 66%
    10:00 +27°C° 0 mm 1 m/S 726 mmHg 61%
    11:00 +28°C° 0 mm 2 m/S 726 mmHg 58%
    12:00 +28°C° 0 mm 2 m/S 726 mmHg 56%
    13:00 +29°C° 0 mm 2 m/S 726 mmHg 53%
    14:00 +29°C° 0 mm 2 m/S 726 mmHg 54%
    15:00 +30°C° 0 mm 2 m/S 725 mmHg 54%
    16:00 +30°C° 0 mm 2 m/S 725 mmHg 55%
    17:00 +29°C° 0 mm 2 m/S 725 mmHg 60%
    18:00 +27°C° 0 mm 2 m/S 725 mmHg 66%
    19:00 +26°C° 0 mm 2 m/S 724 mmHg 71%
    20:00 +25°C° 0 mm 2 m/S 725 mmHg 73%
    21:00 +24°C° 0 mm 2 m/S 725 mmHg 75%
    22:00 +21°C° 0 mm 2 m/S 725 mmHg 77%
    23:00 +21°C° 0 mm 2 m/S 725 mmHg 79%

    Morgen, 24 Juli, Mittwoch

    Zeit Temperatur Niederschläge Wind Luftdruck Luftfeuchtigkeit
    00:00 +20°C° 0 mm 2 m/S 724 mmHg 82%
    01:00 +20°C° 0 mm 2 m/S 724 mmHg 84%
    02:00 +19°C° 0 mm 2 m/S 724 mmHg 86%
    03:00 +19°C° 0 mm 2 m/S 724 mmHg 88%
    04:00 +18°C° 0 mm 2 m/S 723 mmHg 90%
    05:00 +19°C° 0 mm 2 m/S 723 mmHg 87%
    06:00 +20°C° 0 mm 2 m/S 723 mmHg 85%
    07:00 +21°C° 0 mm 2 m/S 724 mmHg 82%
    08:00 +24°C° 0 mm 2 m/S 724 mmHg 77%
    09:00 +26°C° 0 mm 2 m/S 724 mmHg 72%
    10:00 +27°C° 0 mm 3 m/S 724 mmHg 67%
    11:00 +28°C° 0 mm 3 m/S 724 mmHg 63%
    12:00 +29°C° 0 mm 2 m/S 723 mmHg 59%
    13:00 +31°C° 0 mm 2 m/S 723 mmHg 56%
    14:00 +31°C° 0 mm 2 m/S 723 mmHg 56%
    15:00 +31°C° 0 mm 2 m/S 723 mmHg 56%
    16:00 +31°C° 0 mm 2 m/S 723 mmHg 56%
    17:00 +30°C° 0 mm 2 m/S 723 mmHg 61%
    18:00 +28°C° 0 mm 2 m/S 723 mmHg 65%
    19:00 +27°C° 0 mm 1 m/S 723 mmHg 69%
    20:00 +26°C° 0 mm 1 m/S 723 mmHg 70%
    21:00 +24°C° 0 mm 1 m/S 723 mmHg 72%
    22:00 +23°C° 0 mm 1 m/S 724 mmHg 73%
    23:00 +22°C° 0 mm 1 m/S 724 mmHg 73%

    übermorgen, 25 Juli, Donnerstag

    Zeit Temperatur Niederschläge Wind Luftdruck Luftfeuchtigkeit
    00:00 +22°C° 0 mm 1 m/S 723 mmHg 74%
    01:00 +21°C° 0 mm 1 m/S 723 mmHg 74%
    02:00 +21°C° 0 mm 1 m/S 723 mmHg 76%
    03:00 +20°C° 0 mm 1 m/S 723 mmHg 77%
    04:00 +20°C° 0 mm 1 m/S 723 mmHg 79%
    05:00 +21°C° 0 mm 1 m/S 723 mmHg 79%
    06:00 +21°C° 0 mm 2 m/S 723 mmHg 79%
    07:00 +21°C° 0 mm 2 m/S 723 mmHg 79%
    08:00 +24°C° 0 mm 2 m/S 723 mmHg 74%
    09:00 +26°C° 0 mm 2 m/S 724 mmHg 69%
    10:00 +28°C° 0 mm 3 m/S 724 mmHg 64%
    11:00 +29°C° 0 mm 3 m/S 723 mmHg 61%
    12:00 +30°C° 0 mm 3 m/S 723 mmHg 58%
    13:00 +32°C° 0 mm 4 m/S 723 mmHg 55%
    14:00 +31°C° 0 mm 3 m/S 723 mmHg 55%
    15:00 +31°C° 0 mm 3 m/S 722 mmHg 54%
    16:00 +31°C° 0 mm 3 m/S 722 mmHg 54%
    17:00 +30°C° 0 mm 3 m/S 722 mmHg 59%
    18:00 +29°C° 0 mm 2 m/S 722 mmHg 64%
    19:00 +27°C° 0 mm 2 m/S 722 mmHg 69%
    20:00 +26°C° 0 mm 2 m/S 722 mmHg 69%
    21:00 +25°C° 0 mm 2 m/S 722 mmHg 70%
    22:00 +23°C° 0 mm 2 m/S 722 mmHg 71%
    23:00 +23°C° 0 mm 2 m/S 722 mmHg 71%

    26 Juli, Freitag

    Zeit Temperatur Niederschläge Wind Luftdruck Luftfeuchtigkeit
    00:00 +21°C° 0 mm 2 m/S 722 mmHg 72%
    01:00 +20°C° 0 mm 2 m/S 721 mmHg 72%
    02:00 +20°C° 0 mm 2 m/S 721 mmHg 75%
    03:00 +19°C° 0 mm 2 m/S 721 mmHg 77%
    04:00 +19°C° 0 mm 2 m/S 720 mmHg 80%
    05:00 +19°C° 0 mm 2 m/S 720 mmHg 79%
    06:00 +20°C° 0 mm 2 m/S 720 mmHg 78%
    07:00 +21°C° 0 mm 2 m/S 720 mmHg 77%
    08:00 +23°C° 0 mm 2 m/S 720 mmHg 72%
    09:00 +25°C° 0 mm 3 m/S 720 mmHg 68%
    10:00 +27°C° 0 mm 3 m/S 720 mmHg 63%
    11:00 +28°C° 0 mm 3 m/S 720 mmHg 59%
    12:00 +29°C° 0 mm 3 m/S 719 mmHg 56%
    13:00 +30°C° 0 mm 3 m/S 719 mmHg 52%
    14:00 +30°C° 0 mm 3 m/S 719 mmHg 51%
    15:00 +30°C° 0 mm 3 m/S 718 mmHg 51%
    16:00 +30°C° 0 mm 3 m/S 718 mmHg 50%
    17:00 +29°C° 0 mm 2 m/S 718 mmHg 56%
    18:00 +28°C° 0 mm 2 m/S 718 mmHg 61%
    19:00 +26°C° 0 mm 2 m/S 718 mmHg 67%
    20:00 +25°C° 0 mm 2 m/S 718 mmHg 69%
    21:00 +24°C° 0 mm 3 m/S 718 mmHg 70%
    22:00 +21°C° 0 mm 3 m/S 717 mmHg 72%
    23:00 +21°C° 0 mm 3 m/S 717 mmHg 75%

    27 Juli, Samstag

    Zeit Temperatur Niederschläge Wind Luftdruck Luftfeuchtigkeit
    00:00 +20°C° 0 mm 3 m/S 717 mmHg 78%
    01:00 +19°C° 0 mm 3 m/S 716 mmHg 81%
    02:00 +19°C° 0 mm 3 m/S 716 mmHg 81%
    03:00 +18°C° 0 mm 3 m/S 716 mmHg 81%
    04:00 +18°C° 0 mm 3 m/S 715 mmHg 81%
    05:00 +18°C° 0 mm 4 m/S 715 mmHg 80%
    06:00 +19°C° 0 mm 4 m/S 715 mmHg 78%
    07:00 +19°C° 0 mm 4 m/S 715 mmHg 77%
    08:00 +20°C° 0 mm 4 m/S 715 mmHg 74%
    09:00 +22°C° 0 mm 5 m/S 715 mmHg 71%
    10:00 +23°C° 0 mm 5 m/S 715 mmHg 68%
    11:00 +25°C° 0 mm 5 m/S 715 mmHg 65%
    12:00 +26°C° 0 mm 5 m/S 714 mmHg 62%
    13:00 +27°C° 0 mm 5 m/S 714 mmHg 59%
    14:00 +27°C° 0 mm 5 m/S 714 mmHg 59%
    15:00 +27°C° 0 mm 5 m/S 714 mmHg 58%
    16:00 +28°C° 0 mm 5 m/S 713 mmHg 58%
    17:00 +26°C° 0 mm 4 m/S 713 mmHg 63%
    18:00 +25°C° 0 mm 4 m/S 713 mmHg 68%
    19:00 +24°C° 0 mm 3 m/S 713 mmHg 73%
    20:00 +22°C° 0 mm 3 m/S 713 mmHg 74%
    21:00 +21°C° 0 mm 3 m/S 713 mmHg 74%
    22:00 +21°C° 0 mm 4 m/S 713 mmHg 75%
    23:00 +20°C° 0 mm 4 m/S 713 mmHg 77%

    28 Juli, Sonntag

    Zeit Temperatur Niederschläge Wind Luftdruck Luftfeuchtigkeit
    00:00 +19°C° 0 mm 4 m/S 713 mmHg 78%
    01:00 +18°C° 0 mm 3 m/S 713 mmHg 80%
    02:00 +18°C° 0 mm 3 m/S 713 mmHg 82%
    03:00 +17°C° 0 mm 2 m/S 713 mmHg 84%
    04:00 +16°C° 0 mm 1 m/S 713 mmHg 86%
    05:00 +18°C° 0 mm 1 m/S 713 mmHg 85%
    06:00 +19°C° 0 mm 1 m/S 713 mmHg 83%
    07:00 +19°C° 0 mm 2 m/S 714 mmHg 82%
    08:00 +19°C° 0 mm 2 m/S 714 mmHg 81%
    09:00 +20°C° 0 mm 2 m/S 714 mmHg 79%
    10:00 +21°C° 0 mm 2 m/S 714 mmHg 78%
    11:00 +21°C° 0.1 mm 2 m/S 714 mmHg 77%
    12:00 +23°C° 0.1 mm 2 m/S 715 mmHg 76%
    13:00 +23°C° 0.1 mm 2 m/S 715 mmHg 75%
    14:00 +24°C° 0.3 mm 2 m/S 715 mmHg 75%
    15:00 +24°C° 0.3 mm 3 m/S 715 mmHg 75%
    16:00 +24°C° 0.3 mm 3 m/S 715 mmHg 76%
    17:00 +22°C° 0.6 mm 4 m/S 716 mmHg 79%
    18:00 +21°C° 0.6 mm 4 m/S 716 mmHg 83%
    19:00 +19°C° 0.6 mm 4 m/S 716 mmHg 86%
    20:00 +18°C° 0.1 mm 4 m/S 717 mmHg 88%
    21:00 +17°C° 0.1 mm 4 m/S 717 mmHg 89%
    22:00 +16°C° 0.1 mm 3 m/S 717 mmHg 90%
    23:00 +16°C° 0 mm 3 m/S 718 mmHg 91%
    Mehr zeigen